St. Johns, AZ

12:26 PM MST on April 28, 2017 (GMT -0700)
Saint Johns Industrial

Weather History for KSJN - June, 2013

Change the Weather History Date:

Thursday, June 6, 2013

  Actual Average (KLSB) Record (KLSB)
Temperature  
Mean Temperature 66 °F -  
Max Temperature 89 °F 92 °F 100 °F (2016)
Min Temperature 43 °F 52 °F 59 °F (2013)
Cooling Degree Days 1    
Growing Degree Days 16 (Base 50)    
Moisture  
Dew Point 22 °F    
Average Humidity 15    
Maximum Humidity 32    
Minimum Humidity 4    
Precipitation  
Precipitation 0.00 in - - ()
Sea Level Pressure  
Sea Level Pressure 29.76 in    
Wind  
Wind Speed 6 mph (West)    
Max Wind Speed 12 mph    
Max Gust Speed 20 mph    
Visibility 10 miles    
Events      
Averages and records for this station are not official NWS values.
T = Trace of Precipitation, MM = Missing Value Source: NWS Daily Summary

Daily Weather History Graph

Daily Weather History Graph

Search for Another Location

Airport or City:

Trip Planner

Search our weather history database for the weather conditions in past years. The results will help you decide how hot, cold, wet, or windy it might be!

Date:

Astronomy

Jun. 06, 2013 Rise Set
Actual Time 5:04 AM MST 7:28 PM MST
Civil Twilight 4:35 AM MST 7:57 PM MST
Nautical Twilight 3:59 AM MST 8:33 PM MST
Astronomical Twilight 3:20 AM MST 9:12 PM MST
Moon 3:44 AM MST (6/6) 5:55 PM MST (6/6)
Length of Visible Light 15h 21m
Length of Day
14h 23m
Waning Crescent, 3% of the Moon is Illuminated
Jun 6
Waning Crescent
Jun 8
New
Jun 16
First Quarter
Jun 23
Full
Jun 29
Last Quarter

Hourly Weather History & Observations

Time (MST) Temp. Dew Point Humidity Pressure Visibility Wind Dir Wind Speed Gust Speed Precip Events Conditions
12:54 AM 68.0 °F 24.1 °F 19% 29.75 in 10.0 mi WSW 11.5 mph - N/A   Clear
1:54 AM 66.9 °F 25.0 °F 21% 29.74 in 10.0 mi SW 10.4 mph - N/A   Clear
2:54 AM 64.9 °F 25.0 °F 22% 29.76 in 10.0 mi Variable 3.5 mph - N/A   Clear
3:54 AM 60.1 °F 26.1 °F 27% 29.77 in 10.0 mi South 4.6 mph - N/A   Clear
4:54 AM 57.9 °F 25.0 °F 28% 29.78 in 10.0 mi SSE 3.5 mph - N/A   Clear
5:54 AM 57.0 °F 26.1 °F 30% 29.80 in 10.0 mi SSE 3.5 mph - N/A   Clear
6:54 AM 66.0 °F 27.0 °F 23% 29.78 in 10.0 mi ESE 3.5 mph - N/A   Clear
7:54 AM 73.0 °F 26.1 °F 17% 29.81 in 10.0 mi Calm Calm - N/A   Clear
8:54 AM 78.1 °F 25.0 °F 14% 29.79 in 10.0 mi Variable 3.5 mph - N/A   Clear
9:54 AM 80.1 °F 25.0 °F 13% 29.79 in 10.0 mi Calm Calm - N/A   Clear
10:54 AM 86.0 °F 25.0 °F 11% 29.75 in 10.0 mi WNW 5.8 mph - N/A   Clear
11:54 AM 87.1 °F 23.0 °F 10% 29.73 in 10.0 mi North 6.9 mph 16.1 mph N/A   Clear
12:54 PM 89.1 °F 21.0 °F 8% 29.72 in 10.0 mi North 8.1 mph 17.3 mph N/A   Clear
1:54 PM 89.1 °F 19.0 °F 8% 29.71 in 10.0 mi Variable 6.9 mph - N/A   Clear
2:54 PM 91.0 °F 18.0 °F 7% 29.69 in 10.0 mi NW 10.4 mph 19.6 mph N/A   Clear
3:54 PM 89.1 °F 16.0 °F 7% 29.69 in 10.0 mi WNW 10.4 mph - N/A   Clear
4:54 PM 90.0 °F 15.1 °F 6% 29.68 in 10.0 mi West 6.9 mph - N/A   Clear
5:54 PM 89.1 °F 16.0 °F 7% 29.68 in 10.0 mi WNW 9.2 mph - N/A   Clear
6:54 PM 86.0 °F 16.0 °F 7% 29.67 in 10.0 mi WNW 11.5 mph - N/A   Clear
7:54 PM 75.9 °F 19.0 °F 12% 29.70 in 10.0 mi West 6.9 mph - N/A   Clear
8:54 PM 75.0 °F 16.0 °F 11% 29.71 in 10.0 mi West 10.4 mph - N/A   Clear
9:54 PM 73.9 °F 23.0 °F 15% 29.73 in 10.0 mi SW 11.5 mph - N/A   Clear
10:54 PM 68.0 °F 23.0 °F 18% 29.74 in 10.0 mi Calm Calm - N/A   Clear
11:54 PM 66.0 °F 23.0 °F 20% 29.74 in 10.0 mi SW 8.1 mph - N/A   Clear